Location: Newark
(34.9500°N, 139.9667°E)
Time: 01:30:20
(UTC+00:00)

deb Explorer IX - Pass Details

Date: 14 December 2019
Orbit: 548 x 1101 km, 38.8° (Epoch: 23 January)

Event Time Altitude Azimuth Distance (km) Brightness Sun altitude
Rises 09:57:32 0° 289° (WNW) 3,506 ? -29.5°
Reaches altitude 10° 09:59:59 10° 288° (WNW) 2,641 ? -30.0°
Enters shadow 10:06:24 80° 211° (SSW) 1,038 ? -31.3°
